Hourly Data Report for October 27, 2019

MUSKOKA
ONTARIO
Current Station Operator: NAVCAN

44°58'29.000" N
79°18'12.000" W
281.90 m
6115529
71532
YQA

Download Data

Hourly Data (October 2019)
Hourly Data Report for October 27, 2019
TIME
LST
Temp Definition
°C
Dew Point Definition
°C
Rel Hum Definition
%
Precip. Amount Definition
mm

Wind Dir Definition
10's deg

Wind Spd Definition
km/h
Visibility Definition
km
Stn Press Definition
kPa
Hmdx Definition


Wind Chill Definition


Weather Definition


00:00 6.4 5.5 94 1.0 11 17 6.4 97.88     Rain, Fog
01:00 6.7 6.0 95 1.8 11 15 6.4 97.71     Rain, Fog
02:00 7.0 6.4 96 3.2 11 22 4.0 97.54     Moderate Rain, Fog
03:00 7.6 6.9 95 3.0 11 22 8.1 97.36     Moderate Rain, Fog
04:00 7.8 7.2 96 8.5 11 26 4.8 97.21     Heavy Rain, Fog
05:00 8.4 7.8 96 5.5 12 24 6.4 97.09     Moderate Rain, Fog
06:00 8.8 8.2 96 3.8 12 22 8.1 96.94     Moderate Rain, Fog
07:00 9.2 8.6 96 1.0 12 21 8.1 96.80     Rain, Fog
08:00 9.4 8.8 96 0.5 11 26 16.1 96.72     LegendNANA
09:00 9.6 9.2 97 0.0 12 22 16.1 96.63     LegendNANA
10:00 10.1 9.5 96 3.8 13 18 4.0 96.59     Moderate Rain, Fog
11:00 10.9 10.5 97 3.5 19 13 3.6 96.66     Moderate Rain, Fog
12:00 11.8 10.4 91 0.5 20 15 16.1 96.69     LegendNANA
13:00 11.3 9.8 90 0.0 24 18 8.1 96.75     Rain, Fog
14:00 10.6 10.0 96 0.0 20 13 4.8 96.84     Fog
15:00 10.4 10.0 97 0.5 20 11 2.0 96.92     Rain, Fog
16:00 11.0 10.6 97 0.2 25 21 16.1 97.06     LegendNANA
17:00 9.9 9.1 95 0.0 26 22 16.1 97.28     LegendNANA
18:00 9.3 8.1 92 0.0 28 26 16.1 97.44     Rain
19:00 9.4 7.7 89 0.0 29 17 16.1 97.59     LegendNANA
20:00 9.4 7.7 89 0.0 29 17 16.1 97.67     LegendNANA
21:00 9.5 7.3 86 0.0 29 26 16.1 97.85     LegendNANA
22:00 9.3 7.4 88 0.0 27 24 16.1 97.96     LegendNANA
23:00 9.3 6.9 85 0.0 31 17 16.1 97.99     LegendNANA

Notes on Data Quality.

Legend

  • E = Estimated
  • M = Missing
  • NA = Not Available*
  • [empty] = Indicates an unobserved value
Date modified: